Weather History for Sidney-Richland, MT

Change the Weather History Date:

Monday, February 11, 2013

  Actual Average Record
Temperature  
Mean Temperature 25 °F -  
Max Temperature 33 °F 27 °F 59 °F (2005)
Min Temperature 17 °F 6 °F -28 °F (1988)
Degree Days  
Heating Degree Days 40    
Moisture  
Dew Point 17 °F    
Average Humidity 74    
Maximum Humidity 86    
Minimum Humidity 52    
Precipitation  
Precipitation 0.00 in - - ()
Sea Level Pressure  
Sea Level Pressure 29.97 in    
Wind  
Wind Speed 11 mph (WSW)    
Max Wind Speed 22 mph    
Max Gust Speed 26 mph    
Visibility 10 miles    
Events      
Averages and records for this station are not official NWS values.
T = Trace of Precipitation, MM = Missing Value Source: NWS Daily Summary

Daily Weather History Graph

Daily Weather History Graph

Search for Another Location

Airport:

Trip Planner

Search our weather history database for the weather conditions in past years. The results will help you decide how hot, cold, wet, or windy it might be!

Date:

Astronomy

Feb. 11, 2013 Rise Set
Actual Time 7:08 AM MST 5:14 PM MST
Civil Twilight 6:36 AM MST 5:46 PM MST
Nautical Twilight 6:00 AM MST 6:22 PM MST
Astronomical Twilight 5:24 AM MST 6:58 PM MST
Moon 7:23 AM MST 7:26 PM MST
Length of Visible Light 11h 09m
Length of Day
10h 05m
Waxing Crescent, 3% of the Moon is Illuminated
Feb 11
Waxing Crescent
Feb 17
First Quarter
Feb 25
Full
Mar 4
Last Quarter
Mar 11
New

Hourly Weather History & Observations

Time (MST) Temp. Windchill Dew Point Humidity Pressure Visibility Wind Dir Wind Speed Gust Speed Precip Events Conditions
12:15 AM 19.4 °F 6.6 °F 14.0 °F 80% 30.10 in 10.0 mi NW 12.7 mph - N/A   Overcast
12:35 AM 19.4 °F 7.2 °F 14.0 °F 80% 30.10 in 10.0 mi NW 11.5 mph - N/A   Overcast
12:55 AM 17.6 °F 3.2 °F 14.0 °F 86% 30.10 in 10.0 mi WNW 15.0 mph - N/A   Overcast
1:15 AM 17.6 °F 5.0 °F 12.2 °F 79% 30.10 in 10.0 mi WNW 11.5 mph - N/A   Overcast
1:35 AM 17.6 °F 5.0 °F 14.0 °F 86% 30.10 in 10.0 mi WNW 11.5 mph - N/A   Overcast
1:55 AM 17.6 °F 5.0 °F 14.0 °F 86% 30.10 in 10.0 mi NW 11.5 mph - N/A   Overcast
2:15 AM 17.6 °F 5.0 °F 14.0 °F 86% 30.10 in 10.0 mi WNW 11.5 mph - N/A   Overcast
2:35 AM 17.6 °F 3.2 °F 14.0 °F 86% 30.09 in 10.0 mi WNW 15.0 mph - N/A   Overcast
2:55 AM 17.6 °F 5.0 °F 12.2 °F 79% 30.09 in 10.0 mi NW 11.5 mph - N/A   Overcast
3:15 AM 17.6 °F 4.3 °F 12.2 °F 79% 30.09 in 10.0 mi NW 12.7 mph - N/A   Overcast
3:35 AM 17.6 °F 5.0 °F 12.2 °F 79% 30.09 in 10.0 mi WNW 11.5 mph - N/A   Overcast
4:15 AM 19.4 °F 10.4 °F 14.0 °F 80% 30.09 in 10.0 mi WNW 6.9 mph - N/A   Overcast
5:15 AM 19.4 °F 10.4 °F 14.0 °F 80% 30.08 in 10.0 mi WNW 6.9 mph - N/A   Overcast
5:35 AM 19.4 °F 9.5 °F 15.8 °F 86% 30.08 in 10.0 mi WNW 8.1 mph - N/A   Overcast
5:55 AM 19.4 °F 12.8 °F 14.0 °F 80% 30.08 in 10.0 mi West 4.6 mph - N/A   Overcast
6:15 AM 19.4 °F 12.8 °F 14.0 °F 80% 30.07 in 10.0 mi West 4.6 mph - N/A   Overcast
6:35 AM 19.4 °F 11.5 °F 14.0 °F 80% 30.07 in 10.0 mi WSW 5.8 mph - N/A   Overcast
6:55 AM 19.4 °F 11.5 °F 15.8 °F 86% 30.07 in 10.0 mi WSW 5.8 mph - N/A   Overcast
7:15 AM 19.4 °F 9.5 °F 14.0 °F 80% 30.07 in 10.0 mi WSW 8.1 mph - N/A   Overcast
7:35 AM 19.4 °F 9.5 °F 14.0 °F 80% 30.06 in 10.0 mi WSW 8.1 mph - N/A   Overcast
7:55 AM 19.4 °F 8.6 °F 14.0 °F 80% 30.06 in 10.0 mi WSW 9.2 mph - N/A   Overcast
8:15 AM 19.4 °F 8.6 °F 14.0 °F 80% 30.06 in 10.0 mi SW 9.2 mph - N/A   Overcast
8:35 AM 19.4 °F 7.9 °F 14.0 °F 80% 30.05 in 10.0 mi SW 10.4 mph - N/A   Mostly Cloudy
8:55 AM 19.4 °F 7.2 °F 14.0 °F 80% 30.05 in 10.0 mi SW 11.5 mph - N/A   Partly Cloudy
9:15 AM 19.4 °F 7.9 °F 12.2 °F 74% 30.05 in 10.0 mi SW 10.4 mph - N/A   Clear
9:35 AM 19.4 °F 6.0 °F 14.0 °F 80% 30.04 in 10.0 mi SW 13.8 mph - N/A   Clear
9:55 AM 21.2 °F 8.9 °F 15.8 °F 80% 30.03 in 10.0 mi WSW 12.7 mph - N/A   Clear
10:15 AM 21.2 °F 11.7 °F 15.8 °F 80% 30.03 in 10.0 mi SW 8.1 mph - N/A   Clear
10:35 AM 23.0 °F 12.4 °F 15.8 °F 74% 30.03 in 10.0 mi SSW 10.4 mph - N/A   Clear
10:55 AM 24.8 °F 15.3 °F 15.8 °F 69% 30.02 in 10.0 mi SW 9.2 mph - N/A   Clear
11:15 AM 24.8 °F 14.0 °F 15.8 °F 69% 30.01 in 10.0 mi SW 11.5 mph - N/A   Clear
11:35 AM 26.6 °F 14.7 °F 17.6 °F 69% 30.00 in 10.0 mi SW 15.0 mph - N/A   Clear
11:55 AM 26.6 °F 15.7 °F 17.6 °F 69% 29.99 in 10.0 mi WSW 12.7 mph - N/A   Clear
12:15 PM 28.4 °F 17.5 °F 17.6 °F 64% 29.98 in 10.0 mi SW 13.8 mph - N/A   Clear
12:35 PM 28.4 °F 17.0 °F 17.6 °F 64% 29.96 in 10.0 mi SW 15.0 mph - N/A   Clear
12:55 PM 30.2 °F 20.2 °F 19.4 °F 64% 29.95 in 10.0 mi SW 12.7 mph - N/A   Clear
1:35 PM 30.2 °F 20.2 °F 19.4 °F 64% 29.93 in 10.0 mi SW 12.7 mph - N/A   Clear
1:55 PM 32.0 °F 21.6 °F 19.4 °F 60% 29.92 in 10.0 mi SW 15.0 mph - N/A   Clear
2:15 PM 32.0 °F 22.1 °F 17.6 °F 55% 29.91 in 10.0 mi SW 13.8 mph - N/A   Clear
2:35 PM 33.8 °F 23.5 °F 19.4 °F 56% 29.91 in 10.0 mi SW 16.1 mph - N/A   Clear
2:55 PM 33.8 °F 23.9 °F 17.6 °F 52% 29.91 in 10.0 mi WSW 15.0 mph - N/A   Clear
3:55 PM 33.8 °F 25.3 °F 19.4 °F 56% 29.88 in 10.0 mi SW 11.5 mph - N/A   Partly Cloudy
4:15 PM 33.8 °F 26.4 °F 19.4 °F 56% 29.88 in 10.0 mi SW 9.2 mph - N/A   Partly Cloudy
4:35 PM 32.0 °F 24.2 °F 19.4 °F 60% 29.88 in 10.0 mi SW 9.2 mph - N/A   Clear
4:55 PM 30.2 °F 22.6 °F 19.4 °F 64% 29.88 in 10.0 mi SW 8.1 mph - N/A   Clear
5:15 PM 28.4 °F 20.4 °F 19.4 °F 69% 29.88 in 10.0 mi SW 8.1 mph - N/A   Partly Cloudy
5:35 PM 28.4 °F 21.2 °F 19.4 °F 69% 29.88 in 10.0 mi SSW 6.9 mph - N/A   Mostly Cloudy
5:55 PM 28.4 °F 20.4 °F 21.2 °F 74% 29.87 in 10.0 mi SW 8.1 mph - N/A   Mostly Cloudy
6:15 PM 28.4 °F 20.4 °F 21.2 °F 74% 29.87 in 10.0 mi SSW 8.1 mph - N/A   Partly Cloudy
6:35 PM 26.6 °F 19.1 °F 21.2 °F 80% 29.87 in 10.0 mi SSW 6.9 mph - N/A   Clear
6:55 PM 24.8 °F 16.9 °F 21.2 °F 86% 29.87 in 10.0 mi SSW 6.9 mph - N/A   Clear
7:15 PM 24.8 °F 19.1 °F 19.4 °F 80% 29.87 in 10.0 mi SW 4.6 mph - N/A   Clear
7:35 PM 24.8 °F 20.5 °F 19.4 °F 80% 29.88 in 10.0 mi SW 3.5 mph - N/A   Clear
8:15 PM 24.8 °F 17.9 °F 19.4 °F 80% 29.86 in 10.0 mi SW 5.8 mph - N/A   Clear
8:35 PM 28.4 °F 19.1 °F 19.4 °F 69% 29.86 in 10.0 mi West 10.4 mph - N/A   Clear
8:55 PM 28.4 °F 16.2 °F 19.4 °F 69% 29.85 in 10.0 mi West 17.3 mph - N/A   Clear
9:15 PM 28.4 °F 15.4 °F 19.4 °F 69% 29.85 in 10.0 mi West 19.6 mph - N/A   Clear
9:35 PM 28.4 °F 15.8 °F 19.4 °F 69% 29.85 in 10.0 mi West 18.4 mph - N/A   Clear
9:55 PM 28.4 °F 16.2 °F 19.4 °F 69% 29.85 in 10.0 mi West 17.3 mph - N/A   Clear
10:15 PM 26.6 °F 13.4 °F 19.4 °F 74% 29.84 in 10.0 mi West 18.4 mph 23.0 mph N/A   Clear
10:35 PM 26.6 °F 13.4 °F 19.4 °F 74% 29.85 in 10.0 mi West 18.4 mph 25.3 mph N/A   Clear
10:55 PM 26.6 °F 13.4 °F 17.6 °F 69% 29.85 in 10.0 mi West 18.4 mph 21.9 mph N/A   Clear
11:15 PM 26.6 °F 13.8 °F 17.6 °F 69% 29.85 in 10.0 mi West 17.3 mph 21.9 mph N/A   Clear
11:35 PM 26.6 °F 12.4 °F 17.6 °F 69% 29.85 in 10.0 mi West 21.9 mph 26.5 mph N/A   Clear
11:55 PM 26.6 °F 13.8 °F 17.6 °F 69% 29.86 in 10.0 mi West 17.3 mph - N/A   Clear